Date String (YYYY-MM-DD hh:mm:ss) UTC,Instrument flags,absolute air pressure of the measurement (hPa),sample flow rate (lpm),inlet stack bypass flow (lpm),air temperature of the measurement (°C),ambient temperature measured by the external sensor (°C),aerosol sample conditioner tube jacket temperature (°C),OPC LED temperature (°C),internal box temperature (°C),relative humidity of the measurement (%),span deviation,mass concentration of particles derived from Lorenz-Mie calculation of OPC scattering (μg/m³),mass concentration of particles derived from Lorenz-Mie calculation of OPC scattering (μg/m³),mass concentration of particles derived from Lorenz-Mie calculation of OPC scattering (μg/m³)
DateTimeUTC,F1_M11,P_M11,Q1_M11,Q2_M11,T1_M11,T2_M11,T3_M11,T4_M11,T5_M11,U1_M11,ZSPAN_M11,X2_M11,X0_M11,X1_M11
2023-12-29 00:00:00,SystemResetWarning,0834.2,5.01,000.00,024.7,023.8,000.0,032.9,025.9,6.3,0000.0,0001.93,0007.53,0001.14
2023-12-29 00:01:00,SystemResetWarning,0834.2,5.01,000.00,024.7,023.8,000.0,032.9,025.9,6.3,0000.0,0001.96,0007.61,0001.13
2023-12-29 00:02:00,SystemResetWarning,0834.2,5.00,000.00,024.7,023.9,000.0,032.9,025.9,6.5,0000.0,0001.99,0007.74,0001.12
2023-12-29 00:03:00,SystemResetWarning,0834.2,4.99,000.00,024.7,023.9,000.0,032.9,026.0,6.5,0000.0,0002.02,0007.68,0001.10
2023-12-29 00:04:00,SystemResetWarning,0834.3,4.99,000.00,024.7,023.9,000.0,032.9,026.0,6.6,0000.0,0001.99,0007.33,0001.10
2023-12-29 00:05:00,SystemResetWarning,0834.6,5.00,000.00,024.7,023.9,000.0,032.9,026.0,6.6,0000.0,0001.93,0006.55,0001.10
2023-12-29 00:06:00,SystemResetWarning,0834.5,5.00,000.00,024.7,023.9,000.0,032.9,026.0,6.6,0000.0,0001.84,0005.73,0001.10
2023-12-29 00:07:00,SystemResetWarning,0834.5,5.01,000.00,024.7,023.9,000.0,032.9,026.0,6.6,0000.0,0001.78,0005.66,0001.08
2023-12-29 00:08:00,SystemResetWarning,0834.4,5.00,000.00,024.7,023.9,000.0,032.9,026.0,6.7,0000.0,0001.74,0005.72,0001.08
2023-12-29 00:09:00,SystemResetWarning,0834.7,4.99,000.00,024.7,023.9,000.0,032.9,025.9,6.8,0000.0,0001.68,0007.06,0001.07
2023-12-29 00:10:00,SystemResetWarning,0834.4,5.00,000.00,024.7,023.9,000.0,032.9,025.9,6.9,0000.0,0001.64,0008.19,0001.06
2023-12-29 00:11:00,SystemResetWarning,0834.4,5.01,000.00,024.7,023.8,000.0,032.9,025.9,7.0,0000.0,0001.60,0008.22,0001.06
2023-12-29 00:12:00,SystemResetWarning,0834.6,5.01,000.00,024.7,023.8,000.0,032.9,025.9,7.2,0000.0,0001.59,0008.89,0001.06
2023-12-29 00:13:00,SystemResetWarning,0834.3,5.00,000.00,024.7,023.8,000.0,032.9,026.0,7.3,0000.0,0001.63,0008.71,0001.07
2023-12-29 00:14:00,SystemResetWarning,0834.3,4.99,000.00,024.7,023.8,000.0,032.9,026.0,7.5,0000.0,0001.60,0008.60,0001.08
2023-12-29 00:15:00,SystemResetWarning,0834.5,4.99,000.00,024.7,023.8,000.0,032.9,026.0,7.5,0000.0,0001.60,0008.33,0001.07
2023-12-29 00:16:00,SystemResetWarning,0834.5,5.00,000.00,024.7,023.7,000.0,032.9,026.0,7.5,0000.0,0001.60,0008.29,0001.07
2023-12-29 00:17:00,SystemResetWarning,0834.5,5.01,000.00,024.7,023.7,000.0,032.9,026.0,7.3,0000.0,0001.62,0008.30,0001.06
2023-12-29 00:18:00,SystemResetWarning,0834.3,5.01,000.00,024.7,023.7,000.0,032.9,026.0,7.2,0000.0,0001.63,0008.23,0001.06
2023-12-29 00:19:00,SystemResetWarning,0834.3,5.00,000.00,024.7,023.7,000.0,032.9,025.9,7.1,0000.0,0001.70,0008.18,0001.08
2023-12-29 00:20:00,SystemResetWarning,0834.4,4.99,000.00,024.7,023.7,000.0,032.9,025.9,7.2,0000.0,0001.79,0007.67,0001.09
2023-12-29 00:21:00,SystemResetWarning,0834.8,4.99,000.00,024.7,023.7,000.0,032.9,025.9,7.1,0000.0,0001.84,0006.02,0001.11
2023-12-29 00:22:00,SystemResetWarning,0834.5,5.00,000.00,024.7,023.6,000.0,032.9,025.9,7.3,0000.0,0001.86,0005.50,0001.13
2023-12-29 00:23:00,SystemResetWarning,0834.7,5.00,000.00,024.7,023.6,000.0,032.9,025.9,7.4,0000.0,0001.92,0005.07,0001.16
2023-12-29 00:24:00,SystemResetWarning,0834.4,5.02,000.00,024.7,023.6,000.0,032.9,025.9,7.6,0000.0,0001.92,0004.96,0001.19
2023-12-29 00:25:00,SystemResetWarning,0834.3,5.00,000.00,024.7,023.6,000.0,032.9,025.9,7.5,0000.0,0001.97,0005.12,0001.24
2023-12-29 00:26:00,SystemResetWarning,0834.3,4.99,000.00,024.6,023.5,000.0,032.9,025.9,7.5,0000.0,0002.04,0005.56,0001.28
2023-12-29 00:27:00,SystemResetWarning,0834.4,4.99,000.00,024.6,023.5,000.0,032.9,025.9,7.3,0000.0,0002.12,0006.45,0001.33
2023-12-29 00:28:00,SystemResetWarning,0834.4,5.00,000.00,024.6,023.5,000.0,032.9,025.9,7.4,0000.0,0002.20,0006.97,0001.37
2023-12-29 00:29:00,SystemResetWarning,0834.3,5.01,000.00,024.6,023.5,000.0,032.9,025.9,7.4,0000.0,0002.29,0007.64,0001.41
2023-12-29 00:30:00,SystemResetWarning,0834.4,5.00,000.00,024.6,023.5,000.0,032.9,025.9,7.3,0000.0,0002.33,0008.34,0001.44
2023-12-29 00:31:00,SystemResetWarning,0834.4,4.99,000.00,024.6,023.4,000.0,032.9,025.8,7.3,0000.0,0002.31,0008.31,0001.46
2023-12-29 00:32:00,SystemResetWarning,0834.4,5.00,000.00,024.6,023.4,000.0,032.9,025.8,7.5,0000.0,0002.30,0008.41,0001.50
2023-12-29 00:33:00,SystemResetWarning,0834.4,5.01,000.00,024.6,023.4,000.0,032.9,025.8,7.6,0000.0,0002.38,0009.35,0001.54
2023-12-29 00:34:00,SystemResetWarning,0834.4,5.01,000.00,024.5,023.4,000.0,032.9,025.8,7.5,0000.0,0002.40,0009.14,0001.57
2023-12-29 00:35:00,SystemResetWarning,0834.3,4.99,000.00,024.5,023.4,000.0,032.9,025.8,7.5,0000.0,0002.40,0008.84,0001.59
2023-12-29 00:36:00,SystemResetWarning,0834.4,4.98,000.00,024.5,023.4,000.0,032.9,025.7,7.4,0000.0,0002.35,0009.30,0001.58
2023-12-29 00:37:00,SystemResetWarning,0834.4,5.02,000.00,024.5,023.4,000.0,032.9,025.7,7.5,0000.0,0002.33,0009.97,0001.58
2023-12-29 00:38:00,SystemResetWarning,0834.3,5.00,000.00,024.5,023.3,000.0,032.9,025.7,7.7,0000.0,0002.33,0009.58,0001.61
2023-12-29 00:39:00,SystemResetWarning,0834.4,4.99,000.00,024.5,023.3,000.0,032.8,025.7,7.8,0000.0,0002.29,0009.62,0001.63
2023-12-29 00:40:00,SystemResetWarning,0834.4,5.00,000.00,024.5,023.3,000.0,032.8,025.7,7.8,0000.0,0002.29,0009.24,0001.66
2023-12-29 00:41:00,SystemResetWarning,0834.4,5.02,000.00,024.5,023.3,000.0,032.8,025.7,7.8,0000.0,0002.32,0008.62,0001.70
2023-12-29 00:42:00,SystemResetWarning,0834.4,5.00,000.00,024.5,023.3,000.0,032.8,025.7,7.8,0000.0,0002.34,0008.77,0001.73
2023-12-29 00:43:00,SystemResetWarning,0834.4,4.99,000.00,024.5,023.3,000.0,032.8,025.7,7.8,0000.0,0002.41,0009.12,0001.73
2023-12-29 00:44:00,SystemResetWarning,0834.4,4.99,000.00,024.4,023.2,000.0,032.8,025.7,7.9,0000.0,0002.40,0008.65,0001.71
2023-12-29 00:45:00,SystemResetWarning,0834.4,5.00,000.00,024.4,023.2,000.0,032.8,025.7,7.9,0000.0,0002.41,0008.91,0001.71
2023-12-29 00:46:00,SystemResetWarning,0834.5,5.01,000.00,024.4,023.2,000.0,032.8,025.6,8.0,0000.0,0002.45,0009.27,0001.72
2023-12-29 00:47:00,SystemResetWarning,0834.5,5.01,000.00,024.4,023.2,000.0,032.8,025.6,7.9,0000.0,0002.52,0009.00,0001.74
2023-12-29 00:48:00,SystemResetWarning,0834.5,4.98,000.00,024.4,023.2,000.0,032.8,025.6,8.0,0000.0,0002.57,0008.42,0001.77
2023-12-29 00:49:00,SystemResetWarning,0834.5,4.99,000.00,024.4,023.1,000.0,032.8,025.6,8.0,0000.0,0002.65,0009.03,0001.78
2023-12-29 00:50:00,SystemResetWarning,0834.5,5.01,000.00,024.4,023.1,000.0,032.7,025.6,8.0,0000.0,0002.68,0008.96,0001.79
2023-12-29 00:51:00,SystemResetWarning,0834.5,5.01,000.00,024.4,023.1,000.0,032.7,025.6,8.1,0000.0,0002.69,0008.97,0001.80
2023-12-29 00:52:00,SystemResetWarning,0834.5,5.00,000.00,024.3,023.1,000.0,032.7,025.6,8.1,0000.0,0002.65,0009.26,0001.78
2023-12-29 00:53:00,SystemResetWarning,0834.5,5.00,000.00,024.3,023.0,000.0,032.7,025.5,8.1,0000.0,0002.69,0009.47,0001.79
2023-12-29 00:54:00,SystemResetWarning,0834.5,5.00,000.00,024.3,023.0,000.0,032.7,025.5,8.1,0000.0,0002.67,0009.02,0001.81
2023-12-29 00:55:00,SystemResetWarning,0834.5,5.00,000.00,024.3,023.0,000.0,032.7,025.5,8.1,0000.0,0002.66,0008.81,0001.83
2023-12-29 00:56:00,SystemResetWarning,0834.5,5.01,000.00,024.3,023.0,000.0,032.7,025.5,8.1,0000.0,0002.66,0008.77,0001.87
2023-12-29 00:57:00,SystemResetWarning,0834.5,5.00,000.00,024.3,023.0,000.0,032.7,025.5,8.1,0000.0,0002.66,0008.44,0001.88
2023-12-29 00:58:00,SystemResetWarning,0834.5,5.00,000.00,024.3,023.0,000.0,032.7,025.5,8.0,0000.0,0002.70,0008.42,0001.89
2023-12-29 00:59:00,SystemResetWarning,0834.5,5.00,000.00,024.2,023.0,000.0,032.6,025.5,8.0,0000.0,0002.66,0008.23,0001.88
